Location: North Evanston
(42.0634°N, 87.6976°W)
Time: 22:38:52
(UTC+00:00)

Transit 2A - Pass Details

Date: 12 May 2026
Orbit: 595 x 949 km, 66.7° (Epoch: 5 June)

Event Time Altitude Azimuth Distance (km) Brightness Sun altitude
Rises 22:05:40 0° 209° (SSW) 3,598 9.9 30.8°
Reaches altitude 10° 22:08:15 10° 209° (SSW) 2,643 9.3 30.4°
Maximum altitude 22:14:28 88° 298° (WNW) 911 7.0 29.2°
Drops below altitude 10° 22:20:20 10° 30° (NNE) 2,493 8.5 28.1°
Sets 22:22:42 0° 31° (NNE) 3,383 9.1 27.7°
